Time,TemperatureF,DewpointF,PressureIn,WindDirection,WindDirectionDegrees,WindSpeedMPH,WindSpeedGustMPH,Humidity,HourlyPrecipIn,Conditions,Clouds,dailyrainin,SolarRadiationWatts/m^2,SoftwareType,DateUTC
2013-01-21 00:02:00,43.0,-3.0,-100.00,ENE,62,6.0,13.0,14,0.00,,,0.00,0.000000,,2013-01-21 08:02:00,
2013-01-21 00:13:00,43.0,-3.0,-100.00,ENE,62,6.0,13.0,14,0.00,,,0.00,0.000000,,2013-01-21 08:13:00,
2013-01-21 00:22:00,43.0,-3.0,-100.00,ENE,62,6.0,13.0,14,0.00,,,0.00,0.000000,,2013-01-21 08:22:00,
2013-01-21 00:43:00,43.0,0.0,-100.00,ENE,60,7.0,13.0,16,0.00,,,0.00,0.000000,,2013-01-21 08:43:00,
2013-01-21 00:53:00,43.0,0.0,-100.00,ENE,60,7.0,13.0,16,0.00,,,0.00,0.000000,,2013-01-21 08:53:00,
2013-01-21 01:02:00,43.0,0.0,-100.00,ENE,60,7.0,13.0,16,0.00,,,0.00,0.000000,,2013-01-21 09:02:00,
2013-01-21 01:12:00,43.0,0.0,-100.00,ENE,60,7.0,13.0,16,0.00,,,0.00,0.000000,,2013-01-21 09:12:00,
2013-01-21 01:22:00,43.0,0.0,-100.00,ENE,60,7.0,13.0,16,0.00,,,0.00,0.000000,,2013-01-21 09:22:00,
2013-01-21 01:43:00,42.0,-2.0,-100.00,NE,56,5.0,13.0,15,0.00,,,0.00,0.000000,,2013-01-21 09:43:00,
2013-01-21 01:53:00,42.0,-2.0,-100.00,NE,56,5.0,13.0,15,0.00,,,0.00,0.000000,,2013-01-21 09:53:00,
2013-01-21 02:02:00,42.0,-2.0,-100.00,NE,56,5.0,13.0,15,0.00,,,0.00,0.000000,,2013-01-21 10:02:00,
2013-01-21 02:12:00,42.0,-2.0,-100.00,NE,56,5.0,13.0,15,0.00,,,0.00,0.000000,,2013-01-21 10:12:00,
2013-01-21 02:22:00,42.0,-2.0,-100.00,NE,56,5.0,13.0,15,0.00,,,0.00,0.000000,,2013-01-21 10:22:00,
2013-01-21 02:43:00,43.0,0.0,-100.00,NE,54,5.0,15.0,16,0.00,,,0.00,0.000000,,2013-01-21 10:43:00,
2013-01-21 02:52:00,43.0,0.0,-100.00,NE,54,5.0,15.0,16,0.00,,,0.00,0.000000,,2013-01-21 10:52:00,
2013-01-21 03:02:00,43.0,0.0,-100.00,NE,54,5.0,15.0,16,0.00,,,0.00,0.000000,,2013-01-21 11:02:00,
2013-01-21 03:12:00,43.0,0.0,-100.00,NE,54,5.0,15.0,16,0.00,,,0.00,0.000000,,2013-01-21 11:12:00,
2013-01-21 03:22:00,43.0,0.0,-100.00,NE,54,5.0,15.0,16,0.00,,,0.00,0.000000,,2013-01-21 11:22:00,
2013-01-21 03:43:00,42.0,-1.0,-100.00,NE,55,5.0,15.0,16,0.00,,,0.00,0.000000,,2013-01-21 11:43:00,
2013-01-21 03:53:00,42.0,-1.0,-100.00,NE,55,5.0,15.0,16,0.00,,,0.00,0.000000,,2013-01-21 11:53:00,
2013-01-21 04:02:00,42.0,-1.0,-100.00,NE,55,5.0,15.0,16,0.00,,,0.00,0.000000,,2013-01-21 12:02:00,
2013-01-21 04:12:00,42.0,-1.0,-100.00,NE,55,5.0,15.0,16,0.00,,,0.00,0.000000,,2013-01-21 12:12:00,
2013-01-21 04:22:00,42.0,-1.0,-100.00,NE,55,5.0,15.0,16,0.00,,,0.00,0.000000,,2013-01-21 12:22:00,
2013-01-21 04:43:00,44.0,-2.0,-100.00,NE,48,6.0,15.0,14,0.00,,,0.00,0.000000,,2013-01-21 12:43:00,
2013-01-21 04:53:00,44.0,-2.0,-100.00,NE,48,6.0,15.0,14,0.00,,,0.00,0.000000,,2013-01-21 12:53:00,
2013-01-21 05:02:00,44.0,-2.0,-100.00,NE,48,6.0,15.0,14,0.00,,,0.00,0.000000,,2013-01-21 13:02:00,
2013-01-21 05:12:00,44.0,-2.0,-100.00,NE,48,6.0,15.0,14,0.00,,,0.00,0.000000,,2013-01-21 13:12:00,
2013-01-21 05:22:00,44.0,-2.0,-100.00,NE,48,6.0,15.0,14,0.00,,,0.00,0.000000,,2013-01-21 13:22:00,
2013-01-21 05:43:00,41.0,-2.0,-100.00,ENE,58,7.0,18.0,16,0.00,,,-99.99,0.000000,,2013-01-21 13:43:00,
2013-01-21 05:53:00,41.0,-2.0,-100.00,ENE,58,7.0,18.0,16,0.00,,,-99.99,0.000000,,2013-01-21 13:53:00,
2013-01-21 06:03:00,41.0,-2.0,-100.00,ENE,58,7.0,18.0,16,0.00,,,-99.99,0.000000,,2013-01-21 14:03:00,
2013-01-21 06:12:00,41.0,-2.0,-100.00,ENE,58,7.0,18.0,16,0.00,,,-99.99,0.000000,,2013-01-21 14:12:00,
2013-01-21 06:22:00,41.0,-2.0,-100.00,ENE,58,7.0,18.0,16,0.00,,,-99.99,0.000000,,2013-01-21 14:22:00,
2013-01-21 06:43:00,43.0,0.0,-100.00,NE,56,8.0,16.0,16,0.00,,,0.00,0.000000,,2013-01-21 14:43:00,
2013-01-21 06:53:00,43.0,0.0,-100.00,NE,56,8.0,16.0,16,0.00,,,0.00,0.000000,,2013-01-21 14:53:00,
2013-01-21 07:03:00,43.0,0.0,-100.00,NE,56,8.0,16.0,16,0.00,,,0.00,0.000000,,2013-01-21 15:03:00,
2013-01-21 07:12:00,43.0,0.0,-100.00,NE,56,8.0,16.0,16,0.00,,,0.00,0.000000,,2013-01-21 15:12:00,
2013-01-21 07:22:00,43.0,0.0,-100.00,NE,56,8.0,16.0,16,0.00,,,0.00,0.000000,,2013-01-21 15:22:00,
2013-01-21 07:43:00,43.0,-1.0,-100.00,ENE,62,8.0,15.0,15,0.00,,,0.00,6.000000,,2013-01-21 15:43:00,
2013-01-21 07:53:00,43.0,-1.0,-100.00,ENE,62,8.0,15.0,15,0.00,,,0.00,6.000000,,2013-01-21 15:53:00,
2013-01-21 08:03:00,43.0,-1.0,-100.00,ENE,62,8.0,15.0,15,0.00,,,0.00,6.000000,,2013-01-21 16:03:00,
2013-01-21 08:12:00,43.0,-1.0,-100.00,ENE,62,8.0,15.0,15,0.00,,,0.00,6.000000,,2013-01-21 16:12:00,
2013-01-21 08:22:00,43.0,-1.0,-100.00,ENE,62,8.0,15.0,15,0.00,,,0.00,6.000000,,2013-01-21 16:22:00,
2013-01-21 08:43:00,47.0,-1.0,-100.00,NE,56,9.0,17.0,13,0.00,,,0.00,60.000000,,2013-01-21 16:43:00,
2013-01-21 08:53:00,47.0,-1.0,-100.00,NE,56,9.0,17.0,13,0.00,,,0.00,60.000000,,2013-01-21 16:53:00,
2013-01-21 09:02:00,47.0,-1.0,-100.00,NE,56,9.0,17.0,13,0.00,,,0.00,60.000000,,2013-01-21 17:02:00,
2013-01-21 09:12:00,47.0,-1.0,-100.00,NE,56,9.0,17.0,13,0.00,,,0.00,60.000000,,2013-01-21 17:12:00,
2013-01-21 09:22:00,47.0,-1.0,-100.00,NE,56,9.0,17.0,13,0.00,,,0.00,60.000000,,2013-01-21 17:22:00,
2013-01-21 09:43:00,50.0,1.0,-100.00,NE,51,7.0,16.0,13,0.00,,,0.00,257.000000,,2013-01-21 17:43:00,
2013-01-21 09:53:00,50.0,1.0,-100.00,NE,51,7.0,16.0,13,0.00,,,0.00,257.000000,,2013-01-21 17:53:00,
2013-01-21 10:02:00,50.0,1.0,-100.00,NE,51,7.0,16.0,13,0.00,,,0.00,257.000000,,2013-01-21 18:02:00,
2013-01-21 10:12:00,50.0,1.0,-100.00,NE,51,7.0,16.0,13,0.00,,,0.00,257.000000,,2013-01-21 18:12:00,
2013-01-21 10:22:00,50.0,1.0,-100.00,NE,51,7.0,16.0,13,0.00,,,0.00,257.000000,,2013-01-21 18:22:00,
2013-01-21 10:43:00,54.0,4.0,-100.00,ENE,60,8.0,15.0,13,0.00,,,0.00,629.000000,,2013-01-21 18:43:00,
2013-01-21 10:53:00,54.0,4.0,-100.00,ENE,60,8.0,15.0,13,0.00,,,0.00,629.000000,,2013-01-21 18:53:00,
2013-01-21 11:03:00,54.0,4.0,-100.00,ENE,60,8.0,15.0,13,0.00,,,0.00,629.000000,,2013-01-21 19:03:00,
2013-01-21 11:12:00,54.0,4.0,-100.00,ENE,60,8.0,15.0,13,0.00,,,0.00,629.000000,,2013-01-21 19:12:00,
2013-01-21 11:22:00,54.0,4.0,-100.00,ENE,60,8.0,15.0,13,0.00,,,0.00,629.000000,,2013-01-21 19:22:00,
2013-01-21 11:43:00,53.0,4.0,-100.00,ENE,61,8.0,13.0,13,0.00,,,0.00,745.000000,,2013-01-21 19:43:00,
2013-01-21 11:53:00,53.0,4.0,-100.00,ENE,61,8.0,13.0,13,0.00,,,0.00,745.000000,,2013-01-21 19:53:00,
2013-01-21 12:03:00,53.0,4.0,-100.00,ENE,61,8.0,13.0,13,0.00,,,0.00,745.000000,,2013-01-21 20:03:00,
2013-01-21 12:12:00,53.0,4.0,-100.00,ENE,61,8.0,13.0,13,0.00,,,0.00,745.000000,,2013-01-21 20:12:00,
2013-01-21 12:22:00,53.0,4.0,-100.00,ENE,61,8.0,13.0,13,0.00,,,0.00,745.000000,,2013-01-21 20:22:00,
2013-01-21 12:43:00,54.0,6.0,-100.00,NE,48,6.0,14.0,14,0.00,,,0.00,788.000000,,2013-01-21 20:43:00,
2013-01-21 12:53:00,54.0,6.0,-100.00,NE,48,6.0,14.0,14,0.00,,,0.00,788.000000,,2013-01-21 20:53:00,
2013-01-21 13:03:00,54.0,6.0,-100.00,NE,48,6.0,14.0,14,0.00,,,0.00,788.000000,,2013-01-21 21:03:00,
2013-01-21 13:12:00,54.0,6.0,-100.00,NE,48,6.0,14.0,14,0.00,,,0.00,788.000000,,2013-01-21 21:12:00,
2013-01-21 13:22:00,54.0,6.0,-100.00,NE,48,6.0,14.0,14,0.00,,,0.00,788.000000,,2013-01-21 21:22:00,
2013-01-21 13:43:00,54.0,9.0,-100.00,NE,44,5.0,13.0,16,0.00,,,0.00,625.000000,,2013-01-21 21:43:00,
2013-01-21 13:53:00,54.0,9.0,-100.00,NE,44,5.0,13.0,16,0.00,,,0.00,625.000000,,2013-01-21 21:53:00,
2013-01-21 14:03:00,54.0,9.0,-100.00,NE,44,5.0,13.0,16,0.00,,,0.00,625.000000,,2013-01-21 22:03:00,
2013-01-21 14:12:00,54.0,9.0,-100.00,NE,44,5.0,13.0,16,0.00,,,0.00,625.000000,,2013-01-21 22:12:00,
2013-01-21 14:22:00,54.0,9.0,-100.00,NE,44,5.0,13.0,16,0.00,,,0.00,625.000000,,2013-01-21 22:22:00,
2013-01-21 14:43:00,53.0,8.0,-100.00,NE,54,4.0,10.0,16,0.00,,,-99.99,373.000000,,2013-01-21 22:43:00,
2013-01-21 14:53:00,53.0,8.0,-100.00,NE,54,4.0,10.0,16,0.00,,,-99.99,373.000000,,2013-01-21 22:53:00,
2013-01-21 15:03:00,53.0,8.0,-100.00,NE,54,4.0,10.0,16,0.00,,,-99.99,373.000000,,2013-01-21 23:03:00,
2013-01-21 15:12:00,53.0,8.0,-100.00,NE,54,4.0,10.0,16,0.00,,,-99.99,373.000000,,2013-01-21 23:12:00,
2013-01-21 15:22:00,53.0,8.0,-100.00,NE,54,4.0,10.0,16,0.00,,,-99.99,373.000000,,2013-01-21 23:22:00,
2013-01-21 15:43:00,56.0,4.0,-100.00,NE,54,3.0,10.0,12,0.00,,,0.00,429.000000,,2013-01-21 23:43:00,
2013-01-21 15:53:00,56.0,4.0,-100.00,NE,54,3.0,10.0,12,0.00,,,0.00,429.000000,,2013-01-21 23:53:00,
2013-01-21 16:02:00,56.0,4.0,-100.00,NE,54,3.0,10.0,12,0.00,,,0.00,429.000000,,2013-01-22 00:02:00,
2013-01-21 16:12:00,56.0,4.0,-100.00,NE,54,3.0,10.0,12,0.00,,,0.00,429.000000,,2013-01-22 00:12:00,
2013-01-21 16:22:00,56.0,4.0,-100.00,NE,54,3.0,10.0,12,0.00,,,0.00,429.000000,,2013-01-22 00:22:00,
2013-01-21 16:43:00,48.0,-2.0,-100.00,ENE,66,3.0,9.0,12,0.00,,,0.00,150.000000,,2013-01-22 00:43:00,
2013-01-21 16:53:00,48.0,-2.0,-100.00,ENE,66,3.0,9.0,12,0.00,,,0.00,150.000000,,2013-01-22 00:53:00,
2013-01-21 17:02:00,48.0,-2.0,-100.00,ENE,66,3.0,9.0,12,0.00,,,0.00,150.000000,,2013-01-22 01:02:00,
2013-01-21 17:12:00,48.0,-2.0,-100.00,ENE,66,3.0,9.0,12,0.00,,,0.00,150.000000,,2013-01-22 01:12:00,
2013-01-21 17:22:00,48.0,-2.0,-100.00,ENE,66,3.0,9.0,12,0.00,,,0.00,150.000000,,2013-01-22 01:22:00,
2013-01-21 17:43:00,43.0,2.0,-100.00,NE,47,0.0,6.0,18,0.00,,,0.00,10.000000,,2013-01-22 01:43:00,
2013-01-21 17:52:00,43.0,2.0,-100.00,NE,47,0.0,6.0,18,0.00,,,0.00,10.000000,,2013-01-22 01:52:00,
2013-01-21 18:02:00,43.0,2.0,-100.00,NE,47,0.0,6.0,18,0.00,,,0.00,10.000000,,2013-01-22 02:02:00,
2013-01-21 18:12:00,43.0,2.0,-100.00,NE,47,0.0,6.0,18,0.00,,,0.00,10.000000,,2013-01-22 02:12:00,
2013-01-21 18:22:00,43.0,2.0,-100.00,NE,47,0.0,6.0,18,0.00,,,0.00,10.000000,,2013-01-22 02:22:00,
2013-01-21 18:43:00,43.0,-1.0,-100.00,NE,51,5.0,10.0,15,0.00,,,0.00,0.000000,,2013-01-22 02:43:00,
2013-01-21 18:53:00,43.0,-1.0,-100.00,NE,51,5.0,10.0,15,0.00,,,0.00,0.000000,,2013-01-22 02:53:00,
2013-01-21 19:02:00,43.0,-1.0,-100.00,NE,51,5.0,10.0,15,0.00,,,0.00,0.000000,,2013-01-22 03:02:00,
2013-01-21 19:12:00,43.0,-1.0,-100.00,NE,51,5.0,10.0,15,0.00,,,0.00,0.000000,,2013-01-22 03:12:00,
2013-01-21 19:22:00,43.0,-1.0,-100.00,NE,51,5.0,10.0,15,0.00,,,0.00,0.000000,,2013-01-22 03:22:00,
2013-01-21 19:42:00,43.0,1.0,-100.00,NE,53,6.0,14.0,17,0.00,,,0.00,0.000000,,2013-01-22 03:42:00,
2013-01-21 19:52:00,43.0,1.0,-100.00,NE,53,6.0,14.0,17,0.00,,,0.00,0.000000,,2013-01-22 03:52:00,
2013-01-21 20:02:00,43.0,1.0,-100.00,NE,53,6.0,14.0,17,0.00,,,0.00,0.000000,,2013-01-22 04:02:00,
2013-01-21 20:12:00,43.0,1.0,-100.00,NE,53,6.0,14.0,17,0.00,,,0.00,0.000000,,2013-01-22 04:12:00,
2013-01-21 20:22:00,43.0,1.0,-100.00,NE,53,6.0,14.0,17,0.00,,,0.00,0.000000,,2013-01-22 04:22:00,
2013-01-21 20:42:00,42.0,0.0,-100.00,NE,55,6.0,13.0,17,0.00,,,0.00,0.000000,,2013-01-22 04:42:00,
2013-01-21 20:52:00,42.0,0.0,-100.00,NE,55,6.0,13.0,17,0.00,,,0.00,0.000000,,2013-01-22 04:52:00,
2013-01-21 21:03:00,42.0,0.0,-100.00,NE,55,6.0,13.0,17,0.00,,,0.00,0.000000,,2013-01-22 05:03:00,
2013-01-21 21:12:00,42.0,0.0,-100.00,NE,55,6.0,13.0,17,0.00,,,0.00,0.000000,,2013-01-22 05:12:00,
2013-01-21 21:22:00,42.0,0.0,-100.00,NE,55,6.0,13.0,17,0.00,,,0.00,0.000000,,2013-01-22 05:22:00,
2013-01-21 21:43:00,42.0,2.0,-100.00,ENE,60,5.0,13.0,18,0.00,,,0.00,0.000000,,2013-01-22 05:43:00,
2013-01-21 21:53:00,42.0,2.0,-100.00,ENE,60,5.0,13.0,18,0.00,,,0.00,0.000000,,2013-01-22 05:53:00,
2013-01-21 22:02:00,42.0,2.0,-100.00,ENE,60,5.0,13.0,18,0.00,,,0.00,0.000000,,2013-01-22 06:02:00,
2013-01-21 22:12:00,42.0,2.0,-100.00,ENE,60,5.0,13.0,18,0.00,,,0.00,0.000000,,2013-01-22 06:12:00,
2013-01-21 22:22:00,42.0,2.0,-100.00,ENE,60,5.0,13.0,18,0.00,,,0.00,0.000000,,2013-01-22 06:22:00,
2013-01-21 22:43:00,40.0,0.0,-100.00,ENE,59,5.0,10.0,18,0.00,,,0.00,0.000000,,2013-01-22 06:43:00,
2013-01-21 22:52:00,40.0,0.0,-100.00,ENE,59,5.0,10.0,18,0.00,,,0.00,0.000000,,2013-01-22 06:52:00,
2013-01-21 23:02:00,40.0,0.0,-100.00,ENE,59,5.0,10.0,18,0.00,,,0.00,0.000000,,2013-01-22 07:02:00,
2013-01-21 23:11:00,40.0,0.0,-100.00,ENE,59,5.0,10.0,18,0.00,,,0.00,0.000000,,2013-01-22 07:11:00,
2013-01-21 23:22:00,40.0,0.0,-100.00,ENE,59,5.0,10.0,18,0.00,,,0.00,0.000000,,2013-01-22 07:22:00,
2013-01-21 23:43:00,38.0,-2.0,-100.00,ENE,72,2.0,9.0,18,0.00,,,0.00,0.000000,,2013-01-22 07:43:00,
2013-01-21 23:52:00,38.0,-2.0,-100.00,ENE,72,2.0,9.0,18,0.00,,,0.00,0.000000,,2013-01-22 07:52:00,